Time,TemperatureF,DewpointF,PressureIn,WindDirection,WindDirectionDegrees,WindSpeedMPH,WindSpeedGustMPH,Humidity,HourlyPrecipIn,Conditions,Clouds,dailyrainin,SoftwareType,DateUTC
2013-06-18 00:02:00,69.5,67.0,29.89,South,182,1.0,6.0,91,0.00,,,0.00,weatherlink.com 1.10,2013-06-18 05:02:00,
2013-06-18 00:17:00,69.1,67.0,29.88,SSW,197,2.0,5.0,92,0.00,,,0.00,weatherlink.com 1.10,2013-06-18 05:17:00,
2013-06-18 00:32:00,68.8,66.0,29.88,South,169,2.0,6.0,92,0.00,,,0.00,weatherlink.com 1.10,2013-06-18 05:32:00,
2013-06-18 00:47:00,68.2,66.0,29.88,South,174,2.0,6.0,93,0.00,,,0.00,weatherlink.com 1.10,2013-06-18 05:47:00,
2013-06-18 01:02:00,67.8,66.0,29.88,SSW,213,1.0,4.0,93,0.00,,,0.00,weatherlink.com 1.10,2013-06-18 06:02:00,
2013-06-18 01:17:00,67.6,66.0,29.89,SW,220,1.0,3.0,93,0.00,,,0.00,weatherlink.com 1.10,2013-06-18 06:17:00,
2013-06-18 01:32:00,67.4,65.0,29.89,SW,219,0.0,4.0,93,0.00,,,0.00,weatherlink.com 1.10,2013-06-18 06:32:00,
2013-06-18 01:47:00,67.3,65.0,29.88,SW,217,1.0,4.0,92,0.00,,,0.00,weatherlink.com 1.10,2013-06-18 06:47:00,
2013-06-18 02:02:00,67.2,65.0,29.88,WSW,238,2.0,6.0,92,0.00,,,0.00,weatherlink.com 1.10,2013-06-18 07:02:00,
2013-06-18 02:17:00,67.2,64.0,29.88,WSW,240,2.0,6.0,90,0.00,,,0.00,weatherlink.com 1.10,2013-06-18 07:17:00,
2013-06-18 02:32:00,67.2,64.0,29.88,WSW,257,3.0,6.0,89,0.00,,,0.00,weatherlink.com 1.10,2013-06-18 07:32:00,
2013-06-18 02:47:00,67.0,64.0,29.88,West,262,2.0,6.0,89,0.00,,,0.00,weatherlink.com 1.10,2013-06-18 07:47:00,
2013-06-18 03:02:00,67.0,64.0,29.88,SW,231,3.0,6.0,89,0.00,,,0.00,weatherlink.com 1.10,2013-06-18 08:02:00,
2013-06-18 03:17:00,67.2,64.0,29.88,SW,219,2.0,6.0,88,0.00,,,0.00,weatherlink.com 1.10,2013-06-18 08:17:00,
2013-06-18 03:32:00,67.0,63.0,29.88,SSW,212,4.0,5.0,88,0.00,,,0.00,weatherlink.com 1.10,2013-06-18 08:32:00,
2013-06-18 03:47:00,66.6,63.0,29.88,SSW,211,1.0,5.0,88,0.00,,,0.00,weatherlink.com 1.10,2013-06-18 08:47:00,
2013-06-18 04:02:00,66.2,63.0,29.88,SSW,206,2.0,6.0,89,0.00,,,0.00,weatherlink.com 1.10,2013-06-18 09:02:00,
2013-06-18 04:17:00,65.8,63.0,29.88,SW,223,1.0,5.0,90,0.00,,,0.00,weatherlink.com 1.10,2013-06-18 09:17:00,
2013-06-18 04:32:00,65.4,63.0,29.88,SSW,193,3.0,4.0,91,0.00,,,0.00,weatherlink.com 1.10,2013-06-18 09:32:00,
2013-06-18 04:47:00,65.1,63.0,29.89,South,188,3.0,5.0,91,0.00,,,0.00,weatherlink.com 1.10,2013-06-18 09:47:00,
2013-06-18 05:02:00,64.5,63.0,29.90,SSW,202,2.0,4.0,93,0.00,,,0.00,weatherlink.com 1.10,2013-06-18 10:02:00,
2013-06-18 05:17:00,64.3,62.0,29.90,SW,215,4.0,6.0,93,0.00,,,0.00,weatherlink.com 1.10,2013-06-18 10:17:00,
2013-06-18 05:32:00,64.4,62.0,29.90,WSW,251,2.0,5.0,93,0.00,,,0.00,weatherlink.com 1.10,2013-06-18 10:32:00,
2013-06-18 05:47:00,64.4,62.0,29.90,SW,230,2.0,4.0,93,0.00,,,0.00,weatherlink.com 1.10,2013-06-18 10:47:00,
2013-06-18 06:02:00,64.5,63.0,29.91,West,273,0.0,7.0,94,0.00,,,0.00,weatherlink.com 1.10,2013-06-18 11:02:00,
2013-06-18 06:17:00,64.7,63.0,29.91,West,271,1.0,4.0,94,0.00,,,0.00,weatherlink.com 1.10,2013-06-18 11:17:00,
2013-06-18 06:32:00,65.2,64.0,29.91,WNW,298,0.0,7.0,94,0.00,,,0.00,weatherlink.com 1.10,2013-06-18 11:32:00,
2013-06-18 06:47:00,65.8,64.0,29.92,WNW,284,2.0,5.0,94,0.00,,,0.00,weatherlink.com 1.10,2013-06-18 11:47:00,
2013-06-18 07:02:00,67.1,65.0,29.91,WNW,299,2.0,5.0,92,0.00,,,0.00,weatherlink.com 1.10,2013-06-18 12:02:00,
2013-06-18 07:18:00,68.1,65.0,29.92,NNW,329,4.0,6.0,90,0.00,,,0.00,weatherlink.com 1.10,2013-06-18 12:18:00,
2013-06-18 07:33:00,68.9,66.0,29.92,North,360,3.0,6.0,89,0.00,,,0.00,weatherlink.com 1.10,2013-06-18 12:33:00,
2013-06-18 07:48:00,69.7,66.0,29.92,NNW,339,4.0,8.0,87,0.00,,,0.00,weatherlink.com 1.10,2013-06-18 12:48:00,
2013-06-18 08:03:00,70.8,66.0,29.92,NNW,340,3.0,7.0,85,0.00,,,0.00,weatherlink.com 1.10,2013-06-18 13:03:00,
2013-06-18 08:18:00,71.6,66.0,29.92,North,5,6.0,8.0,82,0.00,,,0.00,weatherlink.com 1.10,2013-06-18 13:18:00,
2013-06-18 08:33:00,72.6,67.0,29.92,NNW,346,1.0,7.0,81,0.00,,,0.00,weatherlink.com 1.10,2013-06-18 13:33:00,
2013-06-18 08:48:00,73.8,67.0,29.92,North,5,3.0,5.0,78,0.00,,,0.00,weatherlink.com 1.10,2013-06-18 13:48:00,
2013-06-18 09:03:00,74.9,67.0,29.92,NW,322,3.0,4.0,76,0.00,,,0.00,weatherlink.com 1.10,2013-06-18 14:03:00,
2013-06-18 09:18:00,75.5,67.0,29.91,NW,325,1.0,5.0,74,0.00,,,0.00,weatherlink.com 1.10,2013-06-18 14:18:00,
2013-06-18 09:33:00,76.1,67.0,29.92,North,5,3.0,5.0,74,0.00,,,0.00,weatherlink.com 1.10,2013-06-18 14:33:00,
2013-06-18 09:48:00,77.4,68.0,29.92,NNW,329,5.0,7.0,72,0.00,,,0.00,weatherlink.com 1.10,2013-06-18 14:48:00,
2013-06-18 10:03:00,77.8,69.0,29.92,North,355,6.0,6.0,73,0.00,,,0.00,weatherlink.com 1.10,2013-06-18 15:03:00,
2013-06-18 10:18:00,78.4,68.0,29.92,WNW,303,4.0,6.0,70,0.00,,,0.00,weatherlink.com 1.10,2013-06-18 15:18:00,
2013-06-18 10:33:00,78.8,68.0,29.93,NNE,29,3.0,8.0,69,0.00,,,0.00,weatherlink.com 1.10,2013-06-18 15:33:00,
2013-06-18 10:48:00,79.2,68.0,29.93,North,350,5.0,7.0,68,0.00,,,0.00,weatherlink.com 1.10,2013-06-18 15:48:00,
2013-06-18 11:03:00,80.0,69.0,29.93,NNW,348,3.0,8.0,68,0.00,,,0.00,weatherlink.com 1.10,2013-06-18 16:03:00,
2013-06-18 11:18:00,80.8,67.0,29.94,West,274,2.0,8.0,63,0.00,,,0.00,weatherlink.com 1.10,2013-06-18 16:18:00,
2013-06-18 11:33:00,80.8,68.0,29.94,North,355,3.0,10.0,65,0.00,,,0.00,weatherlink.com 1.10,2013-06-18 16:33:00,
2013-06-18 11:48:00,81.0,68.0,29.94,North,5,3.0,10.0,65,0.00,,,0.00,weatherlink.com 1.10,2013-06-18 16:48:00,
2013-06-18 12:03:00,80.7,67.0,29.94,NNW,338,4.0,13.0,64,0.00,,,0.00,weatherlink.com 1.10,2013-06-18 17:03:00,
2013-06-18 12:18:00,81.0,67.0,29.94,West,279,7.0,13.0,62,0.00,,,0.00,weatherlink.com 1.10,2013-06-18 17:18:00,
2013-06-18 12:33:00,82.2,69.0,29.94,North,5,5.0,10.0,64,0.00,,,0.00,weatherlink.com 1.10,2013-06-18 17:33:00,
2013-06-18 12:48:00,81.9,67.0,29.93,North,360,4.0,8.0,61,0.00,,,0.00,weatherlink.com 1.10,2013-06-18 17:48:00,
2013-06-18 13:03:00,82.2,68.0,29.94,NW,319,5.0,9.0,62,0.00,,,0.00,weatherlink.com 1.10,2013-06-18 18:03:00,
2013-06-18 13:18:00,82.1,69.0,29.94,North,350,7.0,11.0,64,0.00,,,0.00,weatherlink.com 1.10,2013-06-18 18:18:00,
2013-06-18 13:33:00,81.1,68.0,29.94,NW,306,4.0,9.0,64,0.00,,,0.00,weatherlink.com 1.10,2013-06-18 18:33:00,
2013-06-18 13:49:00,79.2,67.0,29.93,NNW,339,6.0,11.0,67,0.00,,,0.00,weatherlink.com 1.10,2013-06-18 18:49:00,
2013-06-18 14:03:00,78.3,68.0,29.93,NNW,348,7.0,11.0,70,0.00,,,0.00,weatherlink.com 1.10,2013-06-18 19:03:00,
2013-06-18 14:19:00,78.5,68.0,29.93,NNW,346,7.0,10.0,69,0.00,,,0.00,weatherlink.com 1.10,2013-06-18 19:19:00,
2013-06-18 14:34:00,78.7,67.0,29.94,NW,326,6.0,11.0,68,0.00,,,0.00,weatherlink.com 1.10,2013-06-18 19:34:00,
2013-06-18 14:49:00,78.9,68.0,29.94,NNW,340,4.0,10.0,69,0.00,,,0.00,weatherlink.com 1.10,2013-06-18 19:49:00,
2013-06-18 15:04:00,79.2,67.0,29.94,NNW,346,6.0,9.0,67,0.00,,,0.00,weatherlink.com 1.10,2013-06-18 20:04:00,
2013-06-18 15:19:00,79.5,67.0,29.94,North,355,3.0,9.0,66,0.00,,,0.00,weatherlink.com 1.10,2013-06-18 20:19:00,
2013-06-18 15:34:00,80.6,67.0,29.94,NNE,17,4.0,8.0,64,0.00,,,0.00,weatherlink.com 1.10,2013-06-18 20:34:00,
2013-06-18 15:49:00,80.5,66.0,29.94,NNW,338,5.0,9.0,62,0.00,,,0.00,weatherlink.com 1.10,2013-06-18 20:49:00,
2013-06-18 16:04:00,81.0,66.0,29.94,NNW,328,1.0,8.0,60,0.00,,,0.00,weatherlink.com 1.10,2013-06-18 21:04:00,
2013-06-18 16:19:00,80.7,66.0,29.93,NNE,29,4.0,9.0,62,0.00,,,0.00,weatherlink.com 1.10,2013-06-18 21:19:00,
2013-06-18 16:34:00,82.1,67.0,29.93,North,5,5.0,8.0,60,0.00,,,0.00,weatherlink.com 1.10,2013-06-18 21:34:00,
2013-06-18 16:49:00,81.9,67.0,29.93,NE,43,3.0,10.0,61,0.00,,,0.00,weatherlink.com 1.10,2013-06-18 21:49:00,
2013-06-18 17:04:00,80.8,66.0,29.93,NNW,344,5.0,12.0,60,0.00,,,0.00,weatherlink.com 1.10,2013-06-18 22:04:00,
2013-06-18 17:19:00,81.2,65.0,29.93,North,351,3.0,8.0,58,0.00,,,0.00,weatherlink.com 1.10,2013-06-18 22:19:00,
2013-06-18 17:34:00,80.2,66.0,29.92,NNE,18,3.0,7.0,62,0.00,,,0.00,weatherlink.com 1.10,2013-06-18 22:34:00,
2013-06-18 17:49:00,79.3,66.0,29.92,NNW,344,2.0,9.0,63,0.00,,,0.00,weatherlink.com 1.10,2013-06-18 22:49:00,
2013-06-18 18:04:00,78.7,65.0,29.92,NNE,26,5.0,7.0,63,0.00,,,0.00,weatherlink.com 1.10,2013-06-18 23:04:00,
2013-06-18 18:19:00,79.4,65.0,29.92,North,355,4.0,7.0,61,0.00,,,0.00,weatherlink.com 1.10,2013-06-18 23:19:00,
2013-06-18 18:34:00,79.3,65.0,29.92,North,5,6.0,9.0,62,0.00,,,0.00,weatherlink.com 1.10,2013-06-18 23:34:00,
2013-06-18 18:49:00,79.3,66.0,29.93,NNW,336,3.0,6.0,64,0.00,,,0.00,weatherlink.com 1.10,2013-06-18 23:49:00,
2013-06-18 19:04:00,78.8,64.0,29.93,NE,38,3.0,7.0,61,0.00,,,0.00,weatherlink.com 1.10,2013-06-19 00:04:00,
2013-06-18 19:19:00,78.0,64.0,29.94,North,5,2.0,7.0,62,0.00,,,0.00,weatherlink.com 1.10,2013-06-19 00:19:00,
2013-06-18 19:34:00,77.5,64.0,29.95,NNE,26,5.0,6.0,63,0.00,,,0.00,weatherlink.com 1.10,2013-06-19 00:34:00,
2013-06-18 19:49:00,76.6,63.0,29.95,NNE,13,2.0,5.0,64,0.00,,,0.00,weatherlink.com 1.10,2013-06-19 00:49:00,
2013-06-18 20:04:00,75.5,63.0,29.95,North,355,3.0,8.0,65,0.00,,,0.00,weatherlink.com 1.10,2013-06-19 01:04:00,
2013-06-18 20:19:00,74.3,62.0,29.95,NE,40,3.0,7.0,65,0.00,,,0.00,weatherlink.com 1.10,2013-06-19 01:19:00,
2013-06-18 20:34:00,73.4,61.0,29.96,NNE,24,2.0,5.0,66,0.00,,,0.00,weatherlink.com 1.10,2013-06-19 01:34:00,
2013-06-18 20:49:00,72.3,62.0,29.96,NNE,24,1.0,3.0,69,0.00,,,0.00,weatherlink.com 1.10,2013-06-19 01:49:00,
2013-06-18 21:04:00,71.8,62.0,29.97,North,11,4.0,4.0,70,0.00,,,0.00,weatherlink.com 1.10,2013-06-19 02:04:00,
2013-06-18 21:19:00,71.9,61.0,29.97,North,11,2.0,4.0,69,0.00,,,0.00,weatherlink.com 1.10,2013-06-19 02:19:00,
2013-06-18 21:34:00,71.4,62.0,29.98,NE,36,2.0,7.0,71,0.00,,,0.00,weatherlink.com 1.10,2013-06-19 02:34:00,
2013-06-18 21:49:00,70.9,61.0,29.98,NNE,13,2.0,6.0,70,0.00,,,0.00,weatherlink.com 1.10,2013-06-19 02:49:00,
2013-06-18 22:04:00,70.4,61.0,29.99,NNE,15,0.0,6.0,71,0.00,,,0.00,weatherlink.com 1.10,2013-06-19 03:04:00,
2013-06-18 22:19:00,69.7,60.0,29.99,NNE,27,1.0,5.0,72,0.00,,,0.00,weatherlink.com 1.10,2013-06-19 03:19:00,
2013-06-18 22:34:00,69.0,60.0,30.00,NNE,18,0.0,3.0,74,0.00,,,0.00,weatherlink.com 1.10,2013-06-19 03:34:00,
2013-06-18 22:49:00,68.0,60.0,29.99,NE,42,0.0,5.0,75,0.00,,,0.00,weatherlink.com 1.10,2013-06-19 03:49:00,
2013-06-18 23:04:00,68.2,58.0,30.00,NE,51,6.0,8.0,71,0.00,,,0.00,weatherlink.com 1.10,2013-06-19 04:04:00,
2013-06-18 23:19:00,67.9,58.0,30.00,East,91,1.0,5.0,71,0.00,,,0.00,weatherlink.com 1.10,2013-06-19 04:19:00,
2013-06-18 23:34:00,67.6,58.0,30.00,ENE,60,4.0,6.0,71,0.00,,,0.00,weatherlink.com 1.10,2013-06-19 04:34:00,
2013-06-18 23:49:00,67.2,57.0,30.00,North,11,1.0,5.0,71,0.00,,,0.00,weatherlink.com 1.10,2013-06-19 04:49:00,